Tracking 29892 objects as of 21-Nov-2024
HD Live streaming from Space Station
objects crossing your sky now

STARLINK-1506

Track STARLINK-1506 now!
10-day predictions
STARLINK-1506 is classified as:


NORAD ID: 45747
Int'l Code: 2020-038T
Perigee: 553.8 km
Apogee: 554.9 km
Inclination: 53.1 °
Period: 95.6 minutes
Semi major axis: 6925 km
RCS: Unknown
Launch date: June 13, 2020
Source: United States (US)
Launch site: AIR FORCE EASTERN TEST RANGE (AFETR)
Your satellite tracking list
Your tracking list is empty




NASA's NSSDC Master Catalog

Two Line Element Set (TLE):
1 45747U 20038T   24326.10138411  .00005434  00000-0  38338-3 0  9990
2 45747  53.0532 202.6386 0000795  91.9990 268.1090 15.06398772245737
Source of the keplerian elements: AFSPC